www.pogodaiklimat.ru

Погода и климат >> Архив погоды >> Канада >> Нунавут >> Йоа-Хейвен


ПОГОДА в Йоа-Хейвен

  • Прогноз погоды в Йоа-Хейвен
  • Монитор погоды в Йоа-Хейвен

АРХИВ ПОГОДЫ в Йоа-Хейвен

Время (UTC), дата Ветер
(напр.,м/с)
 
Видим.   Явления Облачность Т
(С)
Тd
(С)
f
(%)
Тe
(С)
Тes
(С)
Комфортность P
(гПа)
Po
(гПа)
Тmin
(С)
Tmax
(С)
R
(мм)
R24
(мм)
S
(см)
21 17.03 СВ 5 16 км ясно -27.7 -30.5 77 -40 -39 опасность
обморожения
1023.4 1016.8
00 18.03 С 7 16 км ясно -28.4 -31.3 76 -42 -42 опасность
обморожения
1023.5 1016.9 -29.2 -25.0
03 18.03 С 7 4800 м дымка ясно -29.6 -32.3 77 -44 -44 опасность
обморожения
1023.6 1017.0
06 18.03 С 5 16 км ясно -31.9 -34.8 75 -45 -45 опасность
обморожения
1022.6 1016.0 -32.2 -25.0
09 18.03 С 3 16 км ясно -31.4 -34.5 74 -40 -40 опасность
обморожения
1022.5 1015.9
12 18.03 Ю 2 16 км ясно -29.6 -32.4 77 -36 -33 опасность
обморожения
1021.3 1014.7 -34.0 -25.0
15 18.03 Ю 2 16 км ясно -29.4 -32.4 75 -35 -25 опасность
обморожения
1018.7 1012.1
18 18.03 Ю 2 16 км ясно -28.9 -31.8 76 -36 -28 опасность
обморожения
1016.2 1009.6 -34.0 -28.6
21 18.03 В 5 8000 м дым 10/10 600 м
[]
-25.4 -27.9 80 -37 -37 опасность
обморожения
1013.6 1007.1
00 19.03 В 4 4800 м слаб. снег 10/10 1000 м
[]
-25.5 -27.9 80 -36 -36 опасность
обморожения
1012.0 1005.5 -34.0 -25.4
03 19.03 СВ 6 16 км 9/9 1500 м
[]
-28.9 -31.5 78 -42 -42 опасность
обморожения
1011.8 1005.3
06 19.03 СВ 7 3600 м слаб. снег ясно -32.6 -35.8 73 -48 -48 опасность
обморожения
1013.3 1006.7 -34.0 -25.4 4
09 19.03 СВ 7 16 км ясно -33.6 -37.0 71 -49 -49 опасность
обморожения
1015.2 1008.6
12 19.03 СВ 7 16 км ясно -33.8 -37.1 72 -49 -48 опасность
обморожения
1017.7 1011.1 -34.5 -25.4
15 19.03 СВ 3 16 км ясно -31.5 -34.6 74 -41 -32 опасность
обморожения
1019.5 1012.9
18 19.03 ЮВ 1 16 км ясно -27.0 -29.9 76 -31 -21 опасность
обморожения
1019.8 1013.2 -34.8 -27.0
21 19.03 Ю 2 16 км ясно -26.5 -29.1 79 -34 -33 опасность
обморожения
1020.3 1013.7
00 20.03 Ю 4 16 км 9/0
[]
-27.2 -29.8 78 -37 -37 опасность
обморожения
1017.7 1011.1 -34.8 -26.0
03 20.03 Ю 7 16 км 5/0
[]
-27.2 -29.7 79 -41 -41 опасность
обморожения
1014.2 1007.7
06 20.03 Ю 6 16 км 10/0 2000 м
[]
-23.0 -25.0 84 -35 -35 опасность
обморожения
1009.8 1003.4 -34.8 -23.0
09 20.03 Ю 9 2000 м слаб. снег 10/10 1000 м
[]
-20.3 -22.1 85 -34 -34 опасность
обморожения
1005.3 998.9
12 20.03 Ю 5 8000 м слаб. снег 10/10 300 м
[]
-19.0 -20.7 86 -29 -29 1002.0 995.6 -27.7 -23.0 0.0
15 20.03 ЮВ 3 16 км слаб. снег 10/10 200 м
[]
-18.5 -20.0 88 -26 -26 999.7 993.3
18 20.03 В 5 16 км слаб. снег 10/10 300 м
[]
-17.8 -19.3 88 -27 -27 999.7 993.4 -28.2 -17.8
21 20.03 СВ 6 16 км ясно -18.8 -20.5 86 -30 -29 1001.2 994.9
00 21.03 С 5 16 км слаб. снег 10/10 1500 м
[]
-19.3 -21.0 86 -29 -29 1004.3 998.0 -23.0 -17.5
03 21.03 С 5 16 км слаб. снег 10/10 1000 м
[]
-20.3 -22.1 85 -30 -30 1006.8 1000.5
06 21.03 СЗ 6 16 км слаб. снег 10/10 1000 м
[]
-19.7 -21.3 87 -30 -30 1008.7 1002.4 -23.0 -17.5 91
09 21.03 СЗ 8 12 км слаб. снег 10/10 1000 м
[]
-20.2 -22.0 85 -32 -32 опасность
обморожения
1010.9 1004.5
12 21.03 С 7 16 км 10/10 600 м
[]
-21.9 -23.8 85 -34 -34 опасность
обморожения
1013.5 1007.1 -21.9 -17.5
15 21.03 СЗ 9 14 км ясно -24.6 -26.9 81 -39 -38 опасность
обморожения
1015.0 1008.6
18 21.03 С 8 4000 м дымка 10/10 200 м
[]
-22.9 -24.9 84 -36 -36 опасность
обморожения
1017.3 1010.9 -24.6 -19.6
21 21.03 СЗ 5 16 км ясно -22.5 -24.5 84 -33 -33 опасность
обморожения
1017.9 1011.5
00 22.03 СЗ 5 16 км ясно -25.1 -27.3 82 -37 -37 опасность
обморожения
1018.0 1011.5 -25.1 -22.0
03 22.03 ЮЗ 3 16 км 5/0
[]
-25.1 -27.3 82 -33 -33 опасность
обморожения
1015.7 1009.2
06 22.03 ЮЗ 3 16 км 10/0
[]
-22.5 -24.5 84 -30 -30 1013.3 1006.9 -26.1 -19.6 191
09 22.03 В 2 4800 м слаб. снег 10/10 1000 м
[]
-21.9 -23.8 85 -27 -27 1009.8 1003.4
12 22.03 В 4 4800 м слаб. снег {осадки} 10/10 1000 м
[]
-20.8 -22.6 85 -30 -30 1006.2 999.8 -26.1 -19.6 0.2
15 22.03 СВ 7 16 км слаб. снег 9/9 600 м
[]
-22.4 -24.4 84 -35 -34 опасность
обморожения
1004.2 997.8
18 22.03 С 9 2400 м слаб. снег 9/9 600 м
[]
-23.0 -25.0 84 -37 -37 опасность
обморожения
1004.6 998.2 -26.1 -20.8 0.0
21 22.03 С 11 300 м в посл. час сильная метель 10/10 100 м
[]
-23.7 -25.8 83 -39 -39 опасность
обморожения
1005.3 998.9
00 23.03 С 11 300 м в посл. час сильная метель 3/3 50 м
[]
-25.8 -28.2 80 -42 -42 опасность
обморожения
1007.5 1001.1 -25.8 -20.8 0.0
03 23.03 С 12 1200 м в посл. час метель н/о -27.1 -29.7 78 -44 -44 опасность
обморожения
1010.3 1003.9
06 23.03 С 12 300 м в посл. час сильная метель н/о -31.1 -34.0 75 -49 -49 опасность
обморожения
1013.5 1007.0 -31.1 -20.8 0.3 51
09 23.03 С 8 2400 м дым {осадки} ясно -32.4 -35.4 74 -48 -48 опасность
обморожения
1018.0 1011.5
12 23.03 СЗ 10 2400 м дым 3/3 1500 м
[]
-33.3 -36.5 73 -51 -51 опасность
обморожения
1021.3 1014.7 -33.3 -20.8 0.0
15 23.03 СЗ 12 1000 м в посл. час метель 10/10 1000 м
[]
-30.3 -33.1 76 -48 -48 опасность
обморожения
1021.9 1015.3
18 23.03 СЗ 14 100 м в посл. час сильная метель н/о -27.9 -30.5 78 -46 -46 опасность
обморожения
1022.4 1015.8 -33.3 -27.9
21 23.03 С 13 100 м в посл. час сильная метель н/о -26.3 -28.8 79 -44 -44 опасность
обморожения
1023.7 1017.1
00 24.03 С 8 2400 м дымка {осадки} 3/3 200 м
[]
-26.7 -29.2 79 -41 -41 опасность
обморожения
1025.6 1019.0 -33.3 -26.1 0.2
03 24.03 С 10 1200 м слаб. снег 5/5 100 м
[]
-27.7 -30.3 78 -44 -44 опасность
обморожения
1026.6 1020.0
06 24.03 С 11 1200 м слаб. снег 9/9 50 м
[]
-28.7 -31.4 77 -46 -46 опасность
обморожения
1027.9 1021.3 -33.3 -26.1 172
09 24.03 С 10 1200 м дым н/о -29.0 -31.7 77 -45 -45 опасность
обморожения
1028.3 1021.7
12 24.03 С 8 700 м переохл. туман 9/9 50 м
[]
-29.6 -32.4 77 -45 -45 опасность
обморожения
1028.6 1022.0 -29.6 -26.1
15 24.03 СЗ 10 700 м мгла н/о -28.4 -31.1 77 -45 -45 опасность
обморожения
1028.4 1021.8

 

Местоположение метеостанции Йоа-Хейвен (Нунавут, Канада): широта 46.55 долгота -61.05 высота над уровнем моря 13 м.

В архиве по умолчанию представлена погода в Йоа-Хейвен за последнюю неделю. Архивные данные за месяц целиком и за предыдущие месяцы, начиная с января 2011 года, Вы можете получить, выбрав интересующий диапазон дат из раскрывающегося списка и нажав кнопку "Ввод!".


*Определитесь, кто Вы:
робот инопланетянин человек

Внимание! Время в таблицах - всемирное. Для получения местного времени необходимо прибавить поправку, которая равна -4 ч.

Смотрите также архив погоды в соседних городах и на ближайших метеорологических станциях:

Погода в Четикемпе (Новая Шотландия, Канада) (13 км)
Погода в Норд Маунтин (Новая Шотландия, Канада) (42 км)
Погода в Ингониш Бич (Новая Шотландия, Канада) (51 км)
Погода на Восток Поинт (Остров Принца Эдуарда, Канада) (71 км)
Погода в Сиднее (Новая Шотландия, Канада) (88 км)
Погода в Сидней аэропорту (Новая Шотландия, Канада) (88 км)
Погода на Острове Святого Павла (Новая Шотландия, Канада) (103 км)
Погода в Порт-Хоксбери (Новая Шотландия, Канада) (103 км)
Погода на Острове Авр Окс Мэзон (Квебек, Канада) (111 км)
Погода на Острове Авр Окс Мэзон 2 (Квебек, Канада) (111 км)

Пояснения к столбцам:

Ветер - указаны скорость ветра в м/с - средняя за 10 мин, порывы в срок и между сроками (в фигурных скобках) и направление, откуда дует ветер: С - северный, СВ - северо-восточный, В - восточный, ЮВ - юго-восточный, Ю - южный, ЮЗ - юго-западный, З - западный, СЗ - северо-западный.
Видимость - горизонтальная дальность видимости в метрах или километрах. При видимости от 1 до 10 км при отсутствии осадков обычно наблюдается дымка, при ухудшении видимости до 1 км и менее - туман. В сухую погоду видимость может ухудшаться дымом, пылью или мглою.
Явления - указаны атмосферные явления, наблюдавшиеся в срок или в последний час перед сроком; фигурными скобками обозначены явления, наблюдавшиеся между сроками (за 1-3 часа до срока); квадратными скобками обозначены град или гололедные отложения с указанием их диаметра в мм.
Облачность - указаны через наклонную черту общая и нижняя облачность в баллах и высота нижней границы облаков в метрах; квадратными скобками обозначены формы облаков: Ci - перистые, Cs - перисто-слоистые, Cc - перисто-кучевые, Ac - высококучевые, As - высокослоистые, Sc - слоисто-кучевые, Ns - слоисто-дождевые, Cu - кучевые, Cb - кучево-дождевые. Подробнее классификацию облаков см. в Атласе облаков (PDF).
T - Температура воздуха - температура, измеренная на высоте 2 м над землей.
Td - Температура точки росы - температура, при понижении до которой содержащийся в воздухе водяной пар достигнет насыщения.
f - Относительная влажность воздуха - влажноcть воздуха, измеренная на высоте 2 м над землей.
Te - Эффективная температура - температура, которую ощущает одетый по сезону человек в тени. Характеристика душности погоды. При расчете учитывается влияние влажности воздуха и скорости ветра на теплоощущения человека.
Tes - Эффективная температура на солнце - температура, которую ощущает человек, с поправкой на солнечный нагрев. Характеристика знойности погоды. Зависит от высоты солнца над горизонтом, облачности и скорости ветра. Ночью, в пасмурную погоду, а также при ветре 12 м/с и более поправка равна нулю.
P - Атмосферное давление - приведенное к уровню моря атмосферное давление.
Po - Атмосферное давление - измеренное на уровне метеостанции атмосферное давление.
Tmin - Минимальная температура - минимум температуры воздуха на высоте 2 м над землей.
Tmax - Максимальная температура - максимум температуры воздуха на высоте 2 м над землей.
R - Количество осадков - Количество выпавших осадков за период времени, мм. При наведении курсора мыши на число - период времени, за который выпало указанное количество осадков.
R24 - Количество осадков - Количество выпавших осадков за 24 часа, мм.
S - Снежный покров - Высота снежного покрова, см. При наведении курсора мыши на число - состояние снежного покрова и степень покрытия местности в баллах.